www.pogodaiklimat.ru

Погода и климат >> Архив погоды >> Украина >> Львов


АРХИВ ПОГОДЫ в Львове

Время (UTC), дата Ветер
(напр.,м/с)
 
Видим.   Явления Облачность Т
(С)
Тd
(С)
f
(%)
Тe
(С)
Тes
(С)
Комфортность P
(гПа)
Po
(гПа)
Тmin
(С)
Tmax
(С)
R
(мм)
R24
(мм)
S
(см)
03 9.07 штиль 0 10 км 6/0
[Ac trans]
+12.2 +10.9 92 +12 +12 прохладно 1015.6 977.4
06 9.07 С 2 10 км 5/0
[Ac trans Ci fib]
+19.2 +11.1 59 +21 +26 комфорт 1015.1 977.8 +12.2
09 9.07 СЗ 3 10 км 8/3 1500 м
[Sc Ac trans]
+21.7 +12.5 56 +24 +29 комфорт 1015.3 978.3
12 9.07 З 3 10 км 8/3 1000 м
[Cb calv Ac trans]
+22.0 +14.4 62 +25 +30 комфорт 1014.6 977.7
15 9.07 С 2 10 км 8/4 1000 м
[Cu med, cong Ac trans]
+23.9 +10.3 42 +25 +27 комфорт 1013.6 976.9
18 9.07 штиль 0 10 км 6/0
[Ac trans]
+21.3 +11.0 52 +23 +23 комфорт 1014.1 977.1 +25.2
21 9.07 штиль 0 10 км 4/0
[Ac trans]
+15.0 +12.6 86 +15 +15 по сезону 1015.7 977.9
00 10.07 штиль 0 10 км ясно +13.8 +12.1 89 +13 +13 по сезону 1015.5 977.5
03 10.07 штиль 0 10 км 4/0
[Ci fib]
+12.4 +11.1 92 +12 +12 прохладно 1015.7 977.5
06 10.07 ЮВ 3 10 км 3/0
[Ci fib]
+20.8 +10.7 52 +23 +28 комфорт 1014.9 977.8 +11.8
09 10.07 ЮВ 3 10 км 3/3 1500 м
[Cu hum]
+23.8 +9.4 40 +25 +34 комфорт 1014.5 977.8
12 10.07 ЮВ 2 10 км 6/6 1500 м
[Cu hum]
+26.0 +9.0 34 +26 +33 жарко 1013.0 976.6
15 10.07 Ю 2 10 км 8/3 1500 м
[Cu hum Ac trans]
+24.5 +12.5 47 +26 +28 жарко 1012.6 976.1
18 10.07 штиль 0 10 км 3/0
[Ac trans]
+22.0 +14.6 63 +25 +25 комфорт 1013.0 976.2 +26.5
21 10.07 штиль 0 10 км 4/0
[Ac trans]
+15.8 +13.7 87 +16 +16 по сезону 1013.9 976.3
00 11.07 штиль 0 9000 м дымка 3/0
[Ac trans]
+14.1 +12.7 91 +14 +14 по сезону 1014.2 976.3
03 11.07 штиль 0 9000 м дымка 6/0
[Ac trans Ci fib]
+12.8 +11.5 92 +12 +12 прохладно 1014.2 976.1
06 11.07 СЗ 1 10 км 6/0
[Ac trans Ci fib]
+21.8 +15.5 67 +25 +31 комфорт 1012.7 975.9 +12.6
09 11.07 Ю 1 10 км 8/5 1500 м
[Cu hum Ci fib]
+25.2 +12.1 44 +27 +35 жарко 1012.7 976.2
12 11.07 Ю 2 10 км 8/8 1500 м
[Cu hum]
+27.2 +10.6 35 +28 +31 жарко 1011.6 975.4
15 11.07 ЮВ 1 10 км 8/3 1500 м
[Cu hum Ci fib]
+26.2 +11.0 39 +27 +31 жарко 1011.5 975.2
18 11.07 штиль 0 10 км 8/0
[Ac trans]
+22.4 +14.8 62 +26 +26 жарко 1012.1 975.3 +28.2
21 11.07 штиль 0 10 км 8/0
[Ac trans]
+19.3 +15.8 80 +21 +21 комфорт 1013.0 975.9
00 12.07 штиль 0 10 км 9/0
[Ac trans]
+18.7 +15.7 83 +20 +20 тепло 1012.8 975.6
03 12.07 ЮВ 1 5000 м слабый ливневой дождь 10/5 1300 м
[Cb calv Ac As]
+17.2 +15.5 90 +18 +18 тепло 1013.3 975.9
06 12.07 З 1 10 км {ливн. осадки} 8/0
[Ac trans]
+19.6 +16.7 83 +23 +27 комфорт 1013.1 976.0 +17.2 0.4
09 12.07 З 2 10 км в посл. час ливневой дождь 8/8 600 м
[Cb calv]
+21.3 +16.7 75 +25 +28 комфорт 1013.3 976.4
12 12.07 СЗ 3 10 км 8/8 1300 м
[Cb calv]
+24.0 +16.8 64 +28 +30 душно 1012.2 975.7
15 12.07 СЗ 2 10 км 6/3 1000 м
[Cb calv Ac trans]
+23.7 +14.6 57 +26 +29 жарко 1011.8 975.3
18 12.07 С 1 9000 м гроза, ливневой дождь 8/8 1000 м
[Cb calv]
+19.6 +14.7 73 +23 +23 комфорт 1013.1 976.0 +24.8 0.0
21 12.07 штиль 0 5000 м дымка {гроза, ливн. осадки} 5/0
[Ac trans]
+16.2 +14.5 90 +16 +16 по сезону 1014.2 976.6
00 13.07 штиль 0 9000 м дымка {гроза, ливн. осадки} 8/0
[Ac trans]
+15.6 +14.0 90 +15 +15 по сезону 1013.4 975.8
03 13.07 штиль 0 1600 м в посл. час туман 3/0
[Ac trans]
+12.9 +11.6 92 +12 +12 прохладно 1013.8 975.8
06 13.07 СЗ 2 10 км {туман} 9/0
[Ac trans]
+15.8 +12.8 82 +16 +19 по сезону 1014.1 976.4 +12.9 0.9
09 13.07 З 3 10 км 9/9 600 м
[Sc]
+19.3 +13.2 68 +21 +22 комфорт 1013.9 976.7
12 13.07 З 5 10 км в посл. час ливневой дождь 8/8 500 м
[Cb calv]
+18.5 +14.4 77 +19 +20 прохладно 1013.6 976.3
15 13.07 З 3 10 км слабый ливневой дождь 8/8 840 м
[Cb calv]
+16.8 +12.9 78 +17 +17 прохладно 1013.7 976.2
18 13.07 СЗ 1 10 км {ливн. осадки} 8/8 1470 м
[Cb calv]
+17.1 +13.0 77 +18 +18 прохладно 1013.5 976.1 +21.0 1
21 13.07 З 1 10 км слабый ливневой дождь 10/10 1350 м
[Cb calv]
+16.0 +12.7 81 +17 +17 по сезону 1013.6 976.1
00 14.07 ЮЗ 2 10 км {ливн. осадки} 8/0
[Ac trans]
+14.9 +12.7 87 +15 +15 по сезону 1012.9 975.1
03 14.07 З 2 10 км 10/10 500 м
[Sc]
+15.6 +13.3 86 +15 +15 по сезону 1012.1 974.5
06 14.07 З 3 5000 м слабый ливневой дождь 10/10 120 м
[Cb cap]
+15.6 +14.0 90 +15 +15 по сезону 1012.0 974.4 +14.6 0.9
09 14.07 З 5 9000 м слабый ливневой дождь 10/10 180 м
[Cb cap]
+17.2 +15.3 89 +17 +17 прохладно 1011.7 974.3
12 14.07 З 6 10 км {ливн. осадки} 9/9 400 м
[Cb calv]
+20.3 +16.0 76 +23 +23 комфорт 1010.4 973.5
15 14.07 СЗ 4 10 км {ливн. осадки} 9/9 500 м
[Cb calv]
+19.1 +15.2 78 +20 +21 по сезону 1010.4 973.3
18 14.07 З 1 10 км в посл. час ливневой дождь 8/5 1300 м
[Cb calv Ac trans]
+17.1 +14.5 85 +18 +18 прохладно 1010.2 972.9 +21.6 2
21 14.07 СЗ 4 10 км в посл. час ливневой дождь 10/10 150 м
[Cb cap]
+16.6 +15.2 91 +16 +16 по сезону 1010.6 973.2
00 15.07 СЗ 3 10 км в посл. час ливневой дождь 10/10 180 м
[Cb cap]
+16.4 +15.0 91 +16 +16 тепло 1010.2 972.8
03 15.07 СЗ 4 10 км в посл. час ливневой дождь 10/10 90 м
[Cb cap]
+16.1 +14.9 93 +15 +15 по сезону 1010.1 972.7
06 15.07 СЗ 3 5000 м слабый ливневой дождь 10/10 120 м
[Cb cap]
+16.3 +14.9 91 +16 +16 по сезону 1010.3 972.9 +16.0 14
09 15.07 З 6 10 км {ливн. осадки} 8/8 240 м
[Cb cap]
+18.5 +15.5 83 +19 +20 по сезону 1010.2 973.1
12 15.07 СЗ 5 10 км слабый ливневой дождь 10/10 240 м
[Cb cap]
+16.7 +15.0 90 +16 +16 холодно 1010.6 973.2
15 15.07 СЗ 5 10 км {ливн. осадки} 8/8 630 м
[Cb calv]
+18.8 +14.4 76 +19 +20 прохладно 1009.3 972.2
18 15.07 СЗ 3 10 км {ливн. осадки} 8/3 600 м
[Cb calv Ac trans]
+17.5 +14.6 83 +18 +18 прохладно 1009.7 972.4 +19.4 5
21 15.07 СЗ 3 10 км {ливн. осадки} 8/5 450 м
[Cb calv Ac trans]
+16.3 +14.8 91 +16 +16 по сезону 1010.3 972.9

 

Местоположение метеостанции Львов (Львовская область, Украина): широта 49.82 долгота 23.95 высота над уровнем моря 323 м.

В архиве по умолчанию представлена погода в Львове за последнюю неделю. Архивные данные за месяц целиком и за предыдущие месяцы, начиная с января 2011 года, Вы можете получить, выбрав интересующий диапазон дат из раскрывающегося списка и нажав кнопку "Ввод!".


*Определитесь, кто Вы:
робот инопланетянин человек

Внимание! Время в таблицах - всемирное. Для получения местного времени необходимо прибавить поправку, которая в Львове равна 2 ч.

Смотрите также архив погоды в соседних городах и на ближайших метеорологических станциях:

Погода в Каменке-Бугской (Львовская область, Украина) (42 км)
Погода в Яворове (Львовская область, Украина) (43 км)
Погода в Межгорье (Закарпатская область, Украина) (48 км)
Погода в Раве-Русской (Львовская область, Украина) (53 км)
Погода в Мостиске (Львовская область, Украина) (57 км)
Погода в Дрогобыче (Львовская область, Украина) (61 км)
Погода в Стрые (Львовская область, Украина) (64 км)
Погода в Славском (Львовская область, Украина) (84 км)
Погода в Бережанах (Львовская область, Украина) (84 км)
Погода в Przemysl (Польша) (86 км)

Пояснения к столбцам:

Ветер - указаны скорость ветра в м/с - средняя за 10 мин, порывы в срок и между сроками (в фигурных скобках) и направление, откуда дует ветер: С - северный, СВ - северо-восточный, В - восточный, ЮВ - юго-восточный, Ю - южный, ЮЗ - юго-западный, З - западный, СЗ - северо-западный.
Видимость - горизонтальная дальность видимости в метрах или километрах. При видимости от 1 до 10 км при отсутствии осадков обычно наблюдается дымка, при ухудшении видимости до 1 км и менее - туман. В сухую погоду видимость может ухудшаться дымом, пылью или мглою.
Явления - указаны атмосферные явления, наблюдавшиеся в срок или в последний час перед сроком; фигурными скобками обозначены явления, наблюдавшиеся между сроками (за 1-3 часа до срока); квадратными скобками обозначены град или гололедные отложения с указанием их диаметра в мм.
Облачность - указаны через наклонную черту общая и нижняя облачность в баллах и высота нижней границы облаков в метрах; квадратными скобками обозначены формы облаков: Ci - перистые, Cs - перисто-слоистые, Cc - перисто-кучевые, Ac - высококучевые, As - высокослоистые, Sc - слоисто-кучевые, Ns - слоисто-дождевые, Cu - кучевые, Cb - кучево-дождевые. Подробнее классификацию облаков см. в Атласе облаков (PDF).
T - Температура воздуха - температура, измеренная на высоте 2 м над землей.
Td - Температура точки росы - температура, при понижении до которой содержащийся в воздухе водяной пар достигнет насыщения.
f - Относительная влажность воздуха - влажноcть воздуха, измеренная на высоте 2 м над землей.
Te - Эффективная температура - температура, которую ощущает одетый по сезону человек в тени. Характеристика душности погоды. При расчете учитывается влияние влажности воздуха и скорости ветра на теплоощущения человека.
Tes - Эффективная температура на солнце - температура, которую ощущает человек, с поправкой на солнечный нагрев. Характеристика знойности погоды. Зависит от высоты солнца над горизонтом, облачности и скорости ветра. Ночью, в пасмурную погоду, а также при ветре 12 м/с и более поправка равна нулю.
P - Атмосферное давление - приведенное к уровню моря атмосферное давление.
Po - Атмосферное давление - измеренное на уровне метеостанции атмосферное давление.
Tmin - Минимальная температура - минимум температуры воздуха на высоте 2 м над землей.
Tmax - Максимальная температура - максимум температуры воздуха на высоте 2 м над землей.
R - Количество осадков - Количество выпавших осадков за период времени, мм. При наведении курсора мыши на число - период времени, за который выпало указанное количество осадков.
R24 - Количество осадков - Количество выпавших осадков за 24 часа, мм.
S - Снежный покров - Высота снежного покрова, см. При наведении курсора мыши на число - состояние снежного покрова и степень покрытия местности в баллах.